Powrót do katalogu

QIANFAN-183

AktywnyŁącznośćPO
NORAD 69401·PAYLOAD·🇨🇳 China

Wystrzelony Jun 5, 2026 z Wenchang Space Launch Site

Loading…

Następne Przeloty (najbliższe 24 godziny)

TLE

ŚwieżeSource: Space-Track

Epoka: Sep 14, 2026, 12:43 UTC

1 69401U 26125A   26257.52991600  .00000010  00000-0 -37987-5 0  9991
2 69401  88.9832 270.9165 0001954 101.9383 258.1987 13.51027447 14003

Śledź QIANFAN-183 w czasie rzeczywistym z AllMySat

Download on the App Store